Weather in Postol

Russia / Udmurt Republic     56°49′39″N   52°44′04″E
temp.,
°C
wind,
m/s
gust,
m/s
humid.,
%
clouds,
%
prec.,
mm/h
press.,
hPa
HPBL,
m
29 june, wed
wed2901:00+6nnw4108191 0.0 1017571
04:00+7nnw4117649 0.0 1017666
07:00+9nw47735 0.0 1017406
10:00+14nnw57548 0.0 10161371
13:00+17nnw56455 0.0 10151701
16:00+18nnw46455 0.0 10141906
19:00+16nw37593 0.0 1013413
22:00+11wnw3578100 0.0 101479
30 june, thu
thu3001:00+10nw2283100 0.0 101333
04:00+8wnw2485100 0.0 101263
07:00+12wnw3569100 0.0 1011214
10:00+17wnw355091 0.0 10091155
13:00+17nw355096 0.0 10081321
16:00+11ne6992100 1.6 1010672
19:00+9nne3694100 1.6 1010251
22:00+8n399379 2.2 1011336
1 july, fri
fri101:00+6n3996100 0.0 1012336
04:00+6n3899100 0.4 1012277
07:00+9nne4998100 0.1 1012436
10:00+14ene6979100 0.1 1012858
13:00+17ene686671 0.6 10131603
16:00+17ene59657 1.7 10131215
19:00+16ene487766 0.8 1013533
22:00+12ne4117256 0.9 1014289
2 july, sat
sat201:00+9nne368634 0.0 101492
04:00+8nne238262 0.0 101451
07:00+13nne246980 0.0 1014198
10:00+18ne23509 0.0 10121077
13:00+21e234354 0.0 10112049
16:00+19ese236075 0.0 1011497
19:00+18se13725 0.0 101092
22:00+13n2282100 0.0 101117
3 july, sun
sun301:00+14nnw2679100 0.0 1010146
04:00+13nnw2685100 0.0 1009144
07:00+14nnw2584100 0.0 1008196
10:00+16nnw3779100 0.0 1008381
13:00+18nnw577364 0.4 1007661
16:00+17n47836 2.8 1007828
19:00+16n487978 0.9 1006312
22:00+12n389298 1.1 1007244